GEO-KOMPSAT-2A

Last updated on Mon Oct 20 2025 00:02:22 GMT+0000 (Coordinated Universal Time)

1 43823U 18100A 25292.24628219 .00000000 00000+0 00000+0 0 9992 2 43823 0.0161 102.8866 0001325 33.5910 108.4188 1.00269426 25213
UTC large
Height (km)
Speed (km/s)
/
Latitude / Longitude
Inclination (degrees)
Orbital Period (minutes)
Azimuth
Elevation
Range (km)
Doppler Factor

Next 0 passes for location: London (51.5072 / 0.1276)

Sorry there are no passes over London.